This is the latest recevied weather packets stored in our database for station/object ES0THZ-13. If no packets are shown the sender has not sent any weather packets the latest 10 day(s).
| Time | Temp. | Humidity | Pressure | Rain* | Wind** | Luminosity | Snow |
|---|---|---|---|---|---|---|---|
| 1777838376 | 7.78° C | 75% | 1003.7 hPa | - | - | - | - |
| 1777837309 | 7.78° C | 75% | 1003.8 hPa | - | - | - | - |
| 1777836267 | 8.33° C | 74% | 1002.9 hPa | - | - | - | - |
| 1777835226 | 8.89° C | 73% | 1003.4 hPa | - | - | - | - |
| 1777834191 | 8.89° C | 72% | 1004 hPa | - | - | - | - |
| 1777833091 | 9.44° C | 71% | 1003.7 hPa | - | - | - | - |
| 1777832036 | 10° C | 70% | 1003.5 hPa | - | - | - | - |
| 1777830946 | 10° C | 69% | 1003.6 hPa | - | - | - | - |
| 1777829811 | 10.56° C | 67% | 1003.3 hPa | - | - | - | - |
| 1777828786 | 11.67° C | 65% | 1003.9 hPa | - | - | - | - |
| 1777827646 | 12.78° C | 63% | 1003.3 hPa | - | - | - | - |
| 1777826521 | 15.56° C | 61% | 1003.5 hPa | - | - | - | - |
| 1777825396 | 16.67° C | 60% | 1002.9 hPa | - | - | - | - |
| 1777824371 | 17.78° C | 58% | 1002.4 hPa | - | - | - | - |
| 1777823231 | 18.89° C | 57% | 1003.6 hPa | - | - | - | - |
| 1777822131 | 19.44° C | 56% | 1003.2 hPa | - | - | - | - |
| 1777821036 | 20.56° C | 56% | 1003.2 hPa | - | - | - | - |
| 1777819876 | 21.67° C | 55% | 1003 hPa | - | - | - | - |
| 1777818736 | 21.67° C | 55% | 1003.2 hPa | - | - | - | - |
| 1777817686 | 20° C | 57% | 1004 hPa | - | - | - | - |
| 1777816546 | 20.56° C | 56% | 1005.2 hPa | - | - | - | - |
| 1777815461 | 20.56° C | 55% | 1004.4 hPa | - | - | - | - |
| 1777814441 | 22.22° C | 55% | 1003.1 hPa | - | - | - | - |
| 1777813411 | 22.22° C | 56% | 1003.1 hPa | - | - | - | - |
| 1777812321 | 22.22° C | 56% | 1002.8 hPa | - | - | - | - |
* Rain since midnight (hover to see other rain measurements)
** Current wind speed in m/s (hover to see current wind gust speed)